Zurück zum Katalog

JIGUANG XINGZUO 01 XING

AktivWissenschaftSSO
NORAD 59917·PAYLOAD·🇨🇳 China
Dieser Satellitenname wurde noch nicht durch offizielle Quellen bestätigt.

Gestartet May 30, 2024 von Jiuquan Satellite Launch Center

Loading…

Nächste Überflüge (nächste 24 Stunden)

TLE

AktuellSource: Space-Track

Epoche: Sep 14, 2026, 15:14 UTC

1 59917U 24105A   26257.63475628  .00002037  00000-0  10500-3 0  9997
2 59917  97.5835 272.9717 0011537 279.7913  80.2017 15.17489689126599

Verfolge JIGUANG XINGZUO 01 XING in Echtzeit mit AllMySat

Download on the App Store